Regional Weather Roundup
Issued by NWS

Home | Current Version | Previous Version | Text Only | Print | Product List | Glossary On
Versions: 1 2 3 4 5 6 7 8 9 10 11 12 13 14 15 16 17 18 19 20 21 22 23 24 25 26 27 28 29 30 31 32 33 34 35 36 37 38 39 40 41 42 43 44 45 46 47 48 49 50
000
ASUS45 KABQ 270710
RWRNM
NEW MEXICO REGIONAL WEATHER ROUNDUP
NATIONAL WEATHER SERVICE ALBUQUERQUE NM
1200 AM MST MON FEB 27 2017

NOTE: "FAIR" MEANS FEW OR NO CLOUDS BELOW 12,000 FEET AGL WITH NO
       SIGNIFICANT WEATHER OR OBSTRUCTIONS TO VISION.

      THIS PRODUCT IS RELEASED AS TWO VERSIONS.  ONE VERSION NEAR
      THE TOP OF THE HOUR CONTAINING PRELIMINARY DATA FROM ALBUQUERQUE
      AND OTHER STATIONS.  A FINAL VERSION WITH ADDITIONAL DATA IS
      ISSUED ABOUT 10 MINUTES AFTER THE HOUR.

NMZ501-503-504-510>518-270800-
NORTHWEST PLATEAU/NORTHCENTRAL MOUNTAINS

CITY           SKY/WX    TMP DP  RH WIND       PRES   REMARKS
FARMINGTON     CLOUDY    31  14  49 E10       29.87F WCI  22
LOS ALAMOS     FAIR      30  19  61 SW3       29.92S
SANTA FE       FAIR      24  16  71 N6        29.91S WCI  17
TAOS           CLOUDY    23   7  50 E5        29.91S WCI  17
ANGEL FIRE     FAIR      25  14  63 SW9G17    29.86F WCI  15

$$
NMZ402-403-502-505>509-270800-
WESTCENTRAL MOUNTAINS/SOUTHWEST MOUNTAINS

CITY           SKY/WX    TMP DP  RH WIND       PRES   REMARKS
GALLUP         FAIR      30  21  69 SW7       29.91F WCI  23
GRANTS         CLOUDY    29  21  73 S8        29.94F WCI  21
SILVER CITY    FAIR      36  23  59 NW10      29.96S WCI  28

$$
NMZ407-409-411-412-270800-
SOUTHERN DESERTS

CITY           SKY/WX    TMP DP  RH WIND       PRES   REMARKS
DEMING         FAIR      41  27  57 W10       29.96S
LAS CRUCES     FAIR      37  17  44 W8        29.97R WCI  31
HOLLOMAN AFB   FAIR      43  20  39 SE3       29.97F
ALAMOGORDO     FAIR      48  16  27 E7        29.94F
T OR C         FAIR      40  25  55 CALM      29.94S

$$
NMZ519>523-270800-
CENTRAL VALLEYS/CENTRAL HIGHLANDS

CITY           SKY/WX    TMP DP  RH WIND       PRES   REMARKS
ALBUQUERQUE    FAIR      33  21  61 SE9       29.94R WCI  25
DOUBLE EAGLE   FAIR      26  19  75 SW9       29.94R WCI  17
MORIARTY ARPT  FAIR      29  21  71 W9        29.93F WCI  21
CLINES CORNERS FAIR      25  18  74 W12       29.90F WCI  14
BELEN          FAIR      35  24  63 SW7       29.95R WCI  29
SOCORRO        FAIR      35  24  65 CALM      29.94S

$$
NMZ524>526-539-540-270800-
SOUTHCENTRAL MOUNTAINS

CITY           SKY/WX    TMP DP  RH WIND       PRES   REMARKS
RUIDOSO        FAIR      37  16  41 E6        29.94F WCI  33

$$
NMZ527>531-270800-
NORTHEAST HIGHLANDS/NORTHEAST PLAINS

CITY           SKY/WX    TMP DP  RH WIND       PRES   REMARKS
LAS VEGAS      FAIR      34  14  43 SW17G25   29.84F WCI  23
RATON          FAIR      30   4  33 W12G21    29.81S WCI  20
CLAYTON        FAIR      30   9  41 W12       29.81F WCI  20

$$
NMZ532>537-270800-
EASTCENTRAL PLAINS

CITY           SKY/WX    TMP DP  RH WIND       PRES   REMARKS
TUCUMCARI      FAIR      36  20  52 S6        29.85F WCI  31
CANNON AFB     CLEAR     38  22  51 W5        29.90S WCI  35
CLOVIS AIRPORT FAIR      34  19  55 W9        29.90S WCI  26

$$
NMZ028-029-538-270800-
SOUTHEAST PLAINS

CITY           SKY/WX    TMP DP  RH WIND       PRES   REMARKS
ROSWELL        FAIR      41  25  53 CALM        N/A
ARTESIA        FAIR      39  25  56 SW10      29.91S WCI  32
CARLSBAD       FAIR      44  24  45 S8        29.90S
HOBBS          MOCLDY    45  18  33 CALM      29.94R


$$




USA.gov is the U.S. government's official web portal to all federal, state and local government web resources and services.